Wind_Speed
64 58 52 47 45 43 42 42 43 46 45 42 41 42 42 41 41 43 45 47 49 48 49 52 56 60 60 56 53 51 46 41 37 36 37 41 46 49 52 56 56 57 58 59 58 59 59 59 58 56 56 57 55 52 49 45 44 44 40 34 30 31 34 38 42 42 40 39 39 34 28 26 26 25 24 23 23 25 28 29 30 32 33 32 34 36
65 57 51 49 48 47 45 44 45 47 46 43 42 42 42 40 40 43 44 46 45 42 45 51 55 59 59 55 53 51 46 40 37 36 36 40 44 47 50 53 54 54 56 58 58 58 58 57 56 54 55 58 57 53 50 45 43 45 41 32 28 29 32 36 40 43 43 40 40 38 34 31 30 30 29 27 27 29 31 31 31 32 33 32 33 37
61 56 54 53 52 50 48 45 45 46 47 45 42 42 42 40 41 41 42 44 41 39 44 49 53 57 58 56 53 51 45 40 37 36 36 39 43 46 48 50 51 52 54 56 57 58 57 57 55 53 56 59 58 54 49 45 42 43 42 34 29 30 32 35 38 41 44 41 40 39 37 35 34 33 31 31 32 33 33 32 31 32 33 32 32 34
58 56 58 57 55 53 49 46 44 45 46 44 42 41 40 40 40 40 42 44 41 39 44 49 52 56 57 55 52 49 45 40 38 38 38 40 42 45 46 48 50 51 52 54 56 58 58 58 58 56 57 59 58 52 47 44 41 42 43 39 35 35 35 37 38 40 42 41 40 41 39 39 37 36 35 36 36 36 35 33 32 33 33 32 31 32
59 59 60 60 57 55 50 47 44 43 42 42 42 40 40 41 41 42 44 45 41 40 44 48 51 53 54 52 50 48 46 42 39 38 39 40 42 44 45 46 48 50 51 53 56 59 59 60 61 60 59 60 57 49 44 43 41 42 43 42 40 38 38 39 40 40 41 41 41 42 41 41 40 39 39 39 39 38 36 34 34 34 35 33 32 32
61 62 64 61 58 55 52 48 44 41 40 41 42 42 42 43 43 45 46 43 39 38 42 46 48 49 50 50 49 48 47 44 40 40 41 41 42 43 44 45 48 50 51 54 57 59 59 60 62 62 60 60 56 46 42 41 41 42 44 44 43 41 41 41 42 43 43 43 44 44 43 42 43 42 42 42 41 39 38 37 37 37 37 37 37 37
63 64 64 62 60 57 54 49 44 43 41 39 41 43 45 45 45 47 45 41 37 36 40 43 44 46 47 48 49 48 47 44 41 41 41 41 41 42 43 45 48 51 52 53 56 57 56 57 60 60 59 59 54 45 41 39 38 41 45 46 45 45 44 44 44 44 44 44 45 46 44 44 44 45 46 45 43 42 41 41 42 41 40 40 41 42
63 64 63 62 61 58 53 48 45 45 41 39 42 45 47 46 46 48 45 40 37 37 39 39 41 45 46 47 48 48 46 44 42 42 42 41 40 40 42 45 48 51 52 51 53 53 53 55 59 59 58 57 51 44 41 38 36 38 42 46 47 46 46 47 47 46 45 46 47 46 45 45 46 48 49 49 47 45 44 45 45 45 43 43 42 43
64 63 62 61 60 56 52 49 49 47 42 43 46 46 47 48 49 49 44 39 37 36 36 37 40 44 45 45 47 47 46 45 44 43 42 41 40 39 41 43 46 50 51 50 50 50 51 54 57 59 57 54 48 43 40 38 38 39 40 43 46 47 46 47 48 48 47 47 47 46 46 46 48 49 51 51 49 48 47 48 48 47 47 46 44 43
67 64 63 62 59 55 53 53 53 49 46 49 50 47 48 50 50 49 44 40 37 34 34 36 40 44 43 43 46 47 46 47 46 44 43 41 40 39 40 43 46 48 49 49 48 48 50 52 54 56 56 52 46 43 41 40 40 41 41 42 44 45 46 46 48 49 49 48 47 47 47 47 48 49 50 50 50 49 50 51 50 49 48 47 45 44
67 65 65 62 58 58 58 57 55 51 51 54 52 48 48 48 50 48 44 39 34 31 33 35 39 42 41 41 45 47 49 50 48 45 43 42 41 40 39 42 45 46 47 47 46 46 49 51 51 52 53 50 46 43 43 42 42 42 42 41 42 44 44 46 48 50 50 48 47 47 48 48 48 49 49 50 50 50 52 52 51 49 48 47 46 45
69 67 64 60 59 62 62 61 58 54 55 55 51 49 47 46 47 47 43 37 30 29 32 34 38 41 40 42 46 49 51 51 49 47 45 43 41 39 38 41 44 46 47 47 46 45 47 49 50 51 50 48 45 44 44 44 43 42 41 41 42 43 43 45 48 51 51 49 47 47 48 48 49 49 50 50 50 50 51 51 49 48 47 47 46 46
69 67 63 61 62 63 63 61 58 56 55 54 50 49 46 43 43 43 41 34 28 29 32 34 38 40 40 44 50 52 53 53 51 48 45 43 41 39 37 39 43 46 48 47 45 43 44 47 50 50 49 48 46 44 44 45 44 43 41 41 43 44 44 45 48 51 52 50 48 48 48 49 49 49 50 50 49 49 48 47 47 46 46 46 46 46
70 68 67 65 62 61 60 59 56 53 53 52 49 47 44 41 39 39 39 35 30 31 32 34 37 37 39 44 50 53 54 54 51 47 45 44 43 40 38 38 41 46 49 46 44 42 42 46 50 50 49 49 47 45 45 45 44 42 41 41 43 44 45 46 46 49 51 52 50 49 49 49 49 49 49 48 48 47 46 45 46 46 47 48 48 48
69 66 64 61 58 57 58 57 55 53 53 52 49 46 43 39 37 38 39 37 34 33 33 33 34 34 38 43 48 52 53 53 50 47 47 47 46 43 40 39 41 45 48 47 44 42 42 46 49 49 49 49 47 46 45 44 43 41 40 41 42 43 44 45 45 46 48 51 51 50 50 49 50 50 49 49 49 47 47 46 47 48 50 52 52 53
68 63 60 59 59 59 58 58 58 57 56 54 51 47 42 39 39 40 41 40 38 36 33 32 32 35 39 43 46 49 52 52 50 49 49 49 48 46 44 43 43 45 48 48 45 43 43 47 49 49 49 49 47 46 45 45 42 40 39 40 41 42 43 44 44 45 46 49 50 51 50 50 49 49 49 49 49 49 48 47 48 49 51 53 55 56
68 64 63 63 62 60 59 60 59 58 56 55 51 46 42 42 42 40 40 40 40 37 34 32 33 36 40 43 44 47 50 52 51 51 51 51 51 49 47 47 46 46 47 48 46 45 45 47 48 49 49 49 48 46 45 44 42 40 38 38 39 40 42 43 43 44 46 48 49 50 50 49 48 47 47 48 49 49 49 49 49 50 51 53 55 57
69 66 65 64 63 62 62 63 62 59 57 55 49 45 46 46 43 39 39 39 39 36 34 33 36 39 42 42 41 44 49 51 51 52 53 53 54 52 49 47 47 47 47 48 48 47 47 46 47 49 48 47 47 47 45 42 40 39 39 39 40 40 40 41 43 44 45 46 47 49 50 49 48 47 47 47 48 49 50 50 51 52 53 55 56 58
72 71 68 66 65 65 65 66 64 61 58 55 51 50 49 45 40 38 38 38 38 37 34 34 36 39 41 40 39 42 47 49 51 53 53 55 56 53 48 47 47 47 48 49 49 48 47 46 47 48 48 47 47 46 44 42 41 41 41 42 43 42 41 40 41 42 42 42 44 46 49 50 50 49 49 49 50 51 52 53 54 55 56 57 58 59
74 72 70 69 68 69 69 67 62 58 57 56 54 52 48 43 40 39 37 36 38 38 35 35 36 37 38 38 38 41 45 48 51 53 53 55 57 54 50 49 49 48 48 49 49 49 48 47 47 48 48 47 46 45 44 43 42 43 43 43 43 43 43 41 40 40 40 40 40 42 44 47 48 50 50 51 52 52 52 53 54 55 57 57 58 58
76 73 71 72 74 72 68 63 59 57 56 55 53 49 45 42 40 38 36 36 37 37 37 36 36 36 38 39 39 40 43 46 50 52 54 55 57 56 53 51 51 51 50 49 50 51 50 49 49 47 47 47 46 46 45 45 45 45 44 44 44 44 43 42 40 40 40 40 40 39 40 42 43 45 46 47 48 48 49 50 51 53 54 54 54 54
77 74 73 74 74 69 63 61 60 59 57 55 52 48 45 43 40 37 35 34 35 37 38 37 36 37 39 40 39 39 40 44 48 51 53 55 56 57 55 54 53 53 52 51 52 54 53 51 50 48 47 46 46 46 47 47 48 47 46 45 44 43 43 42 42 42 43 44 43 42 41 41 41 41 42 42 43 44 45 47 48 49 50 50 50 51
77 76 74 72 69 66 63 64 63 59 57 56 53 50 48 45 42 39 36 35 36 37 38 38 37 37 38 39 38 37 38 42 47 50 51 52 54 58 59 57 55 55 55 54 54 55 54 52 51 50 48 47 47 48 49 50 49 48 48 47 45 44 44 44 43 42 42 44 44 44 43 42 42 42 42 42 42 43 44 45 46 47 48 48 49 51
78 76 74 70 68 68 68 67 65 61 59 57 54 51 48 45 43 41 39 38 37 37 38 39 37 37 37 38 38 37 37 41 45 49 50 49 51 57 61 60 58 57 57 56 55 55 55 54 53 52 50 50 50 51 51 51 50 49 49 48 47 46 46 46 45 43 42 42 43 44 44 44 44 44 44 44 44 44 44 44 45 46 47 48 49 50
77 75 73 72 71 72 73 71 67 62 59 56 53 50 48 46 45 44 42 40 39 39 39 40 39 38 37 38 39 38 38 40 44 47 47 46 49 55 58 60 60 58 57 57 55 55 56 56 54 53 52 53 53 53 53 52 51 51 50 48 46 45 45 44 44 44 42 41 42 43 44 44 45 44 44 44 44 44 44 45 46 47 48 49 50 51
76 73 72 71 70 68 66 62 58 56 55 54 52 50 48 46 46 44 41 39 39 40 41 41 40 38 37 38 39 39 39 40 42 44 44 46 49 52 55 58 60 58 57 56 55 55 56 57 57 55 54 53 54 54 54 53 53 52 51 50 49 47 44 43 43 43 43 42 43 43 44 45 45 45 45 45 45 45 46 47 48 49 50 51 52 52
75 72 70 69 67 64 59 56 54 54 54 53 51 49 47 46 45 43 40 38 39 39 40 41 39 37 37 38 39 39 39 40 41 43 44 46 49 51 54 57 58 58 56 56 56 54 53 55 56 56 55 54 54 54 53 53 53 52 51 52 52 50 48 45 43 43 43 43 43 44 45 45 45 46 46 46 47 47 48 50 51 52 53 53 54 54
73 71 70 69 68 66 64 60 58 57 55 53 51 48 47 46 44 41 40 39 39 38 39 40 40 38 37 38 39 40 40 40 42 43 44 46 47 50 53 54 55 55 55 54 54 52 51 51 53 55 56 57 56 55 53 52 52 52 51 51 51 51 50 47 45 44 43 43 42 42 43 44 45 45 46 47 47 48 50 51 52 53 54 55 55 55
73 71 71 69 67 66 65 63 62 61 58 55 52 50 49 47 44 42 41 41 40 38 39 40 40 37 37 38 40 41 41 41 42 43 44 45 46 48 51 53 53 53 52 52 51 48 46 48 52 54 56 58 59 59 57 56 56 56 54 53 51 50 49 49 48 46 44 41 40 41 42 43 44 45 46 47 48 49 51 53 53 55 55 56 56 56
73 72 71 69 67 66 65 65 64 62 59 55 53 52 51 48 46 44 44 43 41 39 39 40 39 38 38 38 38 38 38 40 42 42 43 45 46 46 48 51 53 52 51 50 47 43 42 47 51 52 54 56 58 59 59 59 59 59 57 55 53 51 50 50 48 46 44 42 41 42 44 45 46 46 47 48 49 51 52 53 54 55 55 56 55 55
75 74 71 69 68 66 64 63 62 59 57 54 53 53 51 48 47 46 45 43 41 39 38 38 39 38 37 36 34 32 33 36 39 41 42 43 44 45 46 47 50 52 52 49 44 43 46 50 51 50 50 50 51 52 53 54 56 55 52 50 51 51 51 50 48 46 45 44 44 45 47 49 49 49 49 50 51 52 52 53 53 54 54 54 54 53
76 74 72 70 68 65 62 60 58 57 56 55 54 53 50 48 48 47 45 44 41 39 37 38 39 38 37 34 32 30 32 35 38 40 41 41 41 42 44 46 48 50 50 49 48 50 51 52 54 54 53 50 47 46 46 49 51 51 47 46 47 48 49 48 47 46 45 45 47 48 49 50 50 50 51 51 51 51 51 52 52 53 53 53 53 53
74 72 70 68 65 62 60 58 57 57 57 55 54 52 50 49 48 47 45 43 41 39 37 39 40 39 36 34 32 32 34 37 39 39 40 40 40 41 42 45 47 48 48 49 52 55 55 53 54 56 56 54 51 49 47 47 48 48 47 46 47 47 47 46 45 44 44 45 46 48 49 49 49 49 49 49 49 50 50 51 51 52 53 53 53 53
71 69 67 65 63 60 58 57 58 57 55 53 51 50 49 48 47 46 44 42 40 39 38 39 40 39 36 34 33 34 36 38 38 38 40 41 41 41 42 43 44 46 48 49 52 55 58 57 55 54 54 53 53 53 52 50 48 48 49 48 47 46 44 44 43 44 44 46 48 50 50 49 48 47 48 48 49 50 50 51 51 52 52 52 53 53
67 65 63 62 60 58 58 58 58 56 53 51 51 50 49 47 46 45 43 42 40 39 39 40 40 39 36 35 35 37 39 39 39 39 40 40 40 40 40 41 42 44 46 48 50 53 56 58 57 55 53 51 51 52 53 52 51 51 50 49 47 45 43 43 44 45 47 49 51 53 53 52 50 49 49 50 50 51 51 51 51 51 51 52 53 53
64 62 61 59 58 58 58 58 57 54 52 52 51 51 50 49 47 45 43 41 39 38 39 40 40 38 37 37 38 39 40 39 39 39 39 39 38 38 38 39 41 42 43 45 48 51 54 56 56 56 55 52 50 51 51 51 51 51 50 48 46 45 44 46 48 50 53 55 57 58 58 56 54 52 52 52 52 52 51 51 51 52 52 52 53 53
61 60 59 58 58 59 59 58 56 54 53 53 52 52 51 50 48 46 45 43 40 39 40 40 39 38 38 38 38 39 38 38 38 38 37 37 37 37 37 38 39 41 42 42 45 48 52 54 54 54 54 52 51 50 49 49 49 48 48 47 46 45 45 47 50 51 52 55 57 57 56 55 53 52 52 52 51 51 51 52 52 53 53 53 53 54
59 59 58 58 59 59 58 58 56 55 55 54 53 53 52 51 49 48 48 45 42 40 40 40 39 40 40 39 39 38 37 37 38 36 35 36 36 36 37 37 38 40 41 42 43 46 49 52 53 54 53 51 49 48 47 47 45 42 43 44 45 45 46 47 46 43 42 44 47 49 50 51 50 50 50 50 50 51 52 53 53 54 54 54 55 55
58 58 58 59 59 59 58 58 57 56 56 55 55 54 52 50 49 48 47 44 41 40 40 40 41 42 42 41 39 37 36 37 38 36 35 35 36 36 37 37 38 39 40 42 43 44 46 50 52 54 55 53 51 49 48 46 41 38 40 42 41 42 45 46 43 40 38 40 43 45 48 50 51 53 53 51 51 52 53 54 55 55 56 56 56 56
57 58 58 59 59 59 59 58 57 56 56 54 53 51 48 47 46 46 44 41 39 39 40 41 42 43 43 41 39 36 37 38 37 35 35 36 35 36 37 38 38 38 40 41 43 44 45 47 50 53 55 56 54 52 51 50 46 44 46 48 45 44 44 44 44 43 42 42 44 47 50 52 54 55 55 53 54 55 56 57 57 57 57 57 57 57
56 57 58 58 58 57 56 55 54 54 53 52 50 48 46 45 44 43 42 41 41 40 40 41 43 43 42 40 38 36 36 37 35 35 36 36 35 36 37 37 37 38 38 40 42 43 45 46 48 50 53 55 55 54 53 53 53 52 53 53 51 48 44 41 42 44 44 45 48 50 52 53 54 54 55 56 57 58 58 58 58 57 57 58 58 58
56 57 57 56 56 55 54 52 51 51 50 49 48 46 45 44 44 42 42 43 43 42 42 43 44 43 42 40 38 36 35 36 37 37 36 36 36 36 37 37 37 37 37 38 40 41 43 45 47 49 50 52 54 54 53 54 54 55 56 56 55 52 48 44 44 45 45 48 51 52 53 55 56 56 57 58 58 58 58 58 58 58 58 59 59 60
57 57 57 56 55 54 52 51 50 49 48 48 46 45 44 43 43 43 44 46 45 44 44 45 45 44 42 40 38 36 35 37 39 39 37 36 37 38 38 38 37 37 36 37 38 39 42 44 46 47 48 49 51 52 53 53 53 53 54 55 56 55 53 50 50 49 49 51 53 55 56 57 58 59 59 59 59 59 59 58 58 58 59 60 60 61
57 57 57 56 55 53 52 51 51 50 49 48 46 45 44 44 44 45 46 48 47 46 46 46 45 43 41 39 37 36 36 39 41 40 38 38 38 38 37 37 36 35 35 36 36 38 40 42 45 46 47 48 50 50 51 51 52 52 53 54 55 56 55 54 53 52 53 54 55 56 56 56 57 58 57 57 57 57 56 56 57 58 59 61 61 62
56 56 56 55 54 53 52 51 50 49 49 48 47 46 45 45 46 46 47 47 48 47 46 46 44 42 40 37 36 36 38 40 42 42 41 40 38 37 36 35 35 35 35 35 36 37 39 41 43 44 45 47 49 50 50 49 51 52 52 51 52 52 53 53 54 55 55 55 55 53 53 54 55 56 56 56 56 55 56 57 59 60 61 62 63 64
54 54 54 53 52 51 51 50 50 50 49 48 48 47 46 46 46 46 47 48 47 46 46 44 43 42 41 39 38 39 40 41 43 44 43 40 39 37 36 36 36 36 35 35 35 37 39 40 42 44 44 45 45 47 48 49 50 50 49 49 49 49 48 49 52 55 54 52 51 50 51 53 54 56 57 58 58 59 60 62 63 63 63 64 64 64
52 52 52 51 51 50 50 50 51 51 50 49 48 47 46 46 47 48 48 48 47 46 45 45 44 43 42 41 41 41 41 42 43 44 43 42 41 40 38 37 36 36 35 34 35 35 37 39 41 43 45 46 47 47 48 49 50 50 50 50 48 46 44 43 44 45 46 47 50 52 54 55 57 58 59 60 60 61 63 64 64 64 63 63 63 63
51 51 51 51 50 50 50 50 51 51 50 49 48 47 46 47 48 49 49 48 48 47 46 45 45 44 43 42 42 42 42 43 43 44 44 44 43 42 40 38 37 37 36 35 35 35 36 38 40 42 44 46 48 49 49 49 49 49 49 49 46 44 44 45 46 47 48 50 53 54 55 56 57 57 58 59 59 60 61 62 62 62 62 62 62 62
50 50 51 51 50 50 50 50 51 50 48 47 46 46 47 48 49 49 48 48 47 47 46 46 45 45 44 43 43 43 44 44 45 45 45 45 45 44 42 40 39 39 39 39 38 38 37 38 39 40 42 43 46 46 46 47 47 47 47 47 46 44 44 44 47 50 53 54 55 55 54 55 56 57 58 58 58 59 60 60 60 61 61 61 61 61
48 49 49 49 49 49 49 49 49 48 47 47 46 46 49 50 49 48 48 47 47 46 46 45 45 44 44 44 44 44 45 46 47 47 47 47 47 45 44 42 41 41 41 41 41 41 41 40 40 40 41 41 42 43 44 44 45 46 46 47 47 48 47 47 48 51 54 56 56 56 56 57 59 59 59 60 60 61 60 60 60 60 61 61 61 61
45 46 46 46 47 47 47 48 48 47 47 46 46 47 50 51 49 47 47 46 46 46 45 44 44 44 44 44 45 45 47 48 49 49 49 49 48 47 45 45 44 43 42 42 43 43 43 43 42 42 42 42 42 43 44 44 45 46 46 47 48 50 50 51 53 55 57 59 59 59 60 61 61 60 60 61 62 62 62 61 60 60 60 59 59 58
Wind_Direction
237 236 236 237 237 237 237 233 230 229 228 226 226 227 229 231 232 234 235 234 231 227 226 225 223 226 229 230 231 232 232 230 228 225 224 226 228 229 230 231 230 229 228 228 227 224 223 224 226 225 226 231 234 235 237 239 237 236 243 247 241 242 247 250 255 260 264 272 276 277 278 279 283 286 286 291 295 296 299 300 297 294 289 281 270 262
236 236 236 236 235 234 233 230 228 228 226 226 226 227 229 230 232 234 236 235 231 227 227 226 225 227 228 228 229 231 230 228 228 226 225 227 229 230 230 230 229 227 226 226 225 222 221 223 224 224 226 230 233 234 234 237 237 235 238 242 240 245 249 250 255 258 260 267 271 273 276 277 278 280 282 288 293 296 297 296 294 293 292 286 273 264
235 236 235 234 233 233 232 230 229 228 225 224 225 227 229 230 232 235 237 236 230 225 227 226 225 226 227 226 226 229 229 227 228 228 227 228 229 229 229 229 228 226 224 223 222 219 218 219 221 221 224 229 232 233 233 234 237 236 235 238 243 249 251 253 257 257 258 263 267 270 275 274 273 277 279 283 290 294 295 295 292 290 291 289 279 269
232 233 233 233 233 233 233 231 231 230 226 225 226 228 229 231 233 235 237 235 226 222 225 225 223 224 225 225 224 228 229 226 227 229 230 229 229 229 228 228 227 225 222 221 219 216 215 216 219 222 225 228 231 233 233 232 235 236 235 239 246 251 252 255 257 257 256 260 264 269 272 270 269 273 276 280 287 291 293 293 291 288 288 289 284 276
227 227 229 230 231 232 232 231 231 231 228 226 226 228 230 231 231 233 235 233 225 222 226 225 223 222 224 224 223 225 227 225 224 228 230 230 229 229 228 226 226 224 220 218 217 215 214 216 219 223 226 228 230 232 233 232 233 233 234 240 246 250 253 255 258 258 257 259 263 267 268 267 267 270 274 279 284 289 291 291 291 289 285 284 283 282
224 224 225 225 227 229 231 231 231 232 229 227 225 226 228 229 230 232 234 232 226 223 227 227 224 222 222 222 222 221 224 224 222 225 229 229 229 228 227 225 223 222 218 216 216 214 215 217 219 223 225 226 228 230 233 235 236 233 233 238 244 248 252 255 258 260 260 260 261 264 266 266 266 268 273 277 282 286 288 288 290 291 289 285 283 283
222 223 224 224 225 226 228 228 229 230 229 226 225 225 226 228 230 233 233 231 226 223 227 227 225 222 219 219 220 220 221 223 221 224 227 228 228 227 225 223 221 220 218 215 216 215 216 218 219 221 223 224 227 230 233 236 240 238 236 237 240 245 250 253 256 259 261 261 261 262 264 264 265 267 272 276 279 282 285 287 289 291 293 290 286 286
221 223 224 224 225 226 227 227 228 229 228 227 226 224 225 226 228 232 231 228 224 222 224 226 225 223 217 214 218 219 219 221 222 223 226 226 227 226 224 223 220 218 218 217 217 217 217 219 219 219 221 224 227 231 232 235 243 246 242 239 240 244 249 252 255 257 259 261 261 262 262 263 264 266 270 274 276 279 281 285 288 290 292 292 290 289
220 222 224 224 224 225 226 226 226 227 225 226 227 224 223 224 227 230 229 226 223 220 221 221 222 223 217 211 214 217 217 219 221 223 224 225 225 224 223 223 220 218 218 218 218 218 218 218 217 218 222 226 227 229 232 236 243 248 247 243 242 244 247 251 253 255 256 259 261 262 262 262 263 264 267 271 274 277 279 283 287 290 291 292 292 290
219 219 221 222 222 222 222 222 224 224 223 225 226 224 224 224 226 229 228 225 221 218 220 219 220 222 216 209 211 214 217 218 219 221 223 224 224 223 221 222 221 218 217 217 218 219 218 217 218 220 223 226 226 228 233 237 242 246 247 246 245 244 245 248 252 254 255 257 259 260 261 261 263 264 266 269 273 276 279 282 285 288 289 291 291 290
217 216 218 219 218 217 217 219 221 221 221 225 226 225 225 225 227 228 228 226 220 217 220 219 220 220 213 208 209 212 216 218 217 219 222 223 223 222 220 220 220 218 216 216 217 219 218 218 220 223 225 226 228 231 236 239 241 244 246 248 248 248 248 249 250 253 254 256 258 259 260 261 263 265 267 270 273 276 279 282 284 286 287 288 288 288
217 217 218 217 217 216 216 217 218 218 220 225 227 227 227 226 228 229 228 226 219 219 222 219 220 219 209 206 209 211 214 217 216 216 219 222 222 222 221 220 219 216 214 215 216 218 219 220 222 224 226 228 230 233 235 237 239 242 245 248 250 252 253 252 251 252 253 256 259 259 260 261 263 266 268 272 274 276 279 281 283 284 285 287 288 288
219 219 218 216 216 217 218 218 219 220 222 225 227 229 229 228 229 229 228 225 220 222 225 220 219 217 209 208 209 209 212 215 215 214 216 219 222 222 223 222 218 214 213 214 215 216 218 221 222 224 226 228 230 232 232 233 236 241 245 248 251 252 253 254 253 252 253 255 258 260 260 262 263 265 268 271 273 275 277 279 281 282 283 285 288 289
218 219 218 217 216 217 219 220 222 224 226 228 230 231 231 230 231 231 228 223 219 223 225 222 219 216 213 213 211 210 211 214 214 214 215 217 220 223 224 223 218 213 213 215 214 214 217 221 222 224 226 228 230 231 231 233 237 243 248 251 253 254 253 252 252 253 254 255 258 260 261 261 263 265 266 268 270 273 275 277 279 279 280 283 285 287
215 219 222 222 219 219 219 220 220 221 224 227 229 231 231 230 230 229 227 221 219 223 225 222 218 215 214 216 214 211 212 213 213 214 217 219 220 221 222 223 220 215 214 214 212 212 216 220 222 223 224 225 227 229 231 234 239 245 251 254 256 257 255 252 250 251 253 255 257 260 262 263 263 264 265 267 268 270 273 276 277 277 279 281 282 285
212 214 218 220 219 218 217 217 218 219 221 224 225 227 228 229 229 227 224 219 218 222 222 218 217 215 214 216 215 212 211 213 213 215 219 221 221 219 219 221 222 219 215 212 211 213 216 219 221 222 224 225 225 228 232 236 241 249 255 257 259 259 257 253 250 250 252 255 257 259 262 264 265 266 266 267 268 270 273 275 276 276 277 279 281 283
212 210 211 214 216 217 216 216 217 219 222 225 226 227 227 227 227 226 224 220 218 221 219 215 215 215 215 215 214 211 210 211 213 216 219 222 222 218 217 220 222 220 216 214 213 214 216 218 221 223 224 226 227 229 233 238 244 251 256 259 261 261 259 257 255 254 254 255 257 259 262 264 265 266 268 269 271 273 274 275 276 276 277 279 281 283
213 210 209 211 213 214 214 215 215 216 219 222 224 225 226 227 226 224 224 222 220 221 219 216 215 216 215 213 212 212 210 210 212 216 219 222 223 219 215 217 221 220 218 217 216 215 217 219 221 224 225 226 228 231 234 239 244 250 255 259 262 262 261 262 261 259 258 258 258 260 262 264 266 267 268 270 272 274 276 276 276 277 278 279 280 282
212 211 209 209 210 212 213 214 215 214 216 218 219 220 223 227 227 226 225 223 220 220 219 219 218 219 218 213 210 212 211 210 212 216 219 223 223 220 215 216 220 220 219 219 218 216 218 221 222 224 226 226 228 231 235 239 244 249 255 259 261 262 263 264 264 263 262 261 260 260 262 263 264 266 268 270 271 273 274 275 275 276 277 278 279 281
211 212 210 208 208 211 212 213 214 215 216 218 219 221 224 226 226 225 225 224 222 219 219 221 220 220 221 217 212 211 211 210 212 216 220 223 223 220 217 217 220 221 221 219 218 217 219 222 223 224 225 227 229 231 235 239 244 249 255 258 259 261 263 264 264 264 264 264 264 264 263 263 264 266 267 269 271 273 274 275 275 276 277 278 280 282
210 211 211 210 209 210 212 212 213 214 216 219 222 224 227 229 229 227 226 225 224 220 218 220 220 219 220 218 214 210 210 211 213 216 220 222 222 222 220 219 220 222 222 220 219 219 220 224 225 224 226 227 229 231 235 239 245 250 255 258 260 262 264 264 263 263 264 265 267 268 268 268 268 269 270 271 272 274 275 276 277 277 278 280 282 284
209 209 210 212 213 212 211 211 211 212 214 217 218 220 223 226 229 230 229 229 227 222 219 220 220 220 220 218 214 210 208 211 215 218 220 222 224 223 222 221 221 223 223 222 222 222 222 225 227 227 228 228 229 232 237 242 247 251 255 259 263 265 266 265 263 262 263 264 267 270 272 273 273 274 274 275 275 276 277 278 278 279 281 283 285 287
208 208 209 211 213 213 211 211 210 210 212 214 214 215 217 220 223 225 226 227 227 223 220 220 220 221 222 220 216 212 210 210 215 219 221 222 225 226 224 222 222 223 225 225 226 226 225 227 229 230 231 232 233 235 240 245 249 252 256 260 265 266 266 265 263 263 264 264 266 269 271 273 275 275 276 277 277 278 279 280 281 282 284 287 289 291
206 208 208 208 209 210 210 209 209 208 210 212 213 213 216 219 222 223 222 223 224 222 219 219 220 221 223 222 219 216 214 212 213 218 221 222 225 227 226 224 223 224 225 226 228 229 228 228 230 232 234 236 237 239 243 247 250 254 257 261 263 264 263 262 262 264 266 267 268 269 270 272 274 274 276 278 278 278 280 282 284 286 289 291 293 294
206 206 207 207 208 210 210 209 208 208 209 211 213 214 216 219 221 223 223 223 224 222 218 217 218 218 220 224 223 218 216 215 215 217 219 222 225 227 229 228 225 224 224 226 229 231 231 230 231 234 237 239 240 241 244 247 250 253 257 259 260 261 261 261 262 265 268 270 270 270 270 272 273 274 276 278 279 280 282 285 288 291 293 294 296 297
205 205 206 208 210 213 216 216 214 212 213 214 216 216 217 220 223 224 226 227 227 226 221 217 216 217 219 223 225 221 218 218 218 217 218 222 225 226 229 231 228 225 224 225 227 231 233 232 231 234 238 241 242 243 245 248 250 253 255 257 259 261 261 262 264 266 268 269 269 270 272 273 275 276 277 278 280 282 284 288 291 293 294 296 297 297
204 204 205 207 209 211 213 216 215 215 216 217 218 218 219 221 225 226 227 229 230 229 226 220 217 217 219 222 224 224 222 221 220 219 220 224 225 225 227 231 231 229 227 227 228 232 236 236 235 237 240 242 242 244 246 248 251 254 256 258 260 261 262 265 266 267 268 270 271 273 275 276 276 277 277 279 281 284 287 289 292 293 295 295 296 297
203 203 204 205 207 208 208 208 209 210 212 214 215 217 218 221 225 226 227 230 231 230 227 222 218 219 220 221 223 225 225 224 223 222 223 226 227 226 226 230 232 233 232 232 231 234 239 242 242 243 243 243 244 245 247 248 250 253 256 259 260 261 263 265 267 268 270 272 275 276 277 276 277 278 278 280 282 285 288 291 293 294 295 295 296 296
200 202 203 204 206 208 208 207 207 207 208 209 211 213 215 218 221 222 224 227 229 228 226 222 219 220 222 222 222 223 224 225 225 224 225 228 230 228 225 226 230 233 234 235 235 237 243 249 250 250 248 247 247 248 250 251 252 254 256 258 260 261 263 265 267 268 270 273 275 276 277 277 278 279 281 283 286 288 290 292 294 294 295 295 295 295
199 200 202 203 204 207 209 209 209 209 208 208 209 211 213 215 217 219 221 224 226 226 224 221 219 220 223 225 224 224 225 227 227 227 228 229 231 231 228 225 227 230 233 235 235 238 243 248 251 252 253 252 251 251 252 253 254 254 256 257 258 260 262 263 264 266 268 270 272 275 278 280 282 283 285 287 289 290 291 292 293 293 293 293 293 294
198 200 201 202 204 206 208 210 211 211 211 210 211 213 213 214 216 219 222 225 226 225 223 218 217 220 224 227 228 228 229 230 231 231 231 231 231 232 232 229 227 228 230 230 228 229 235 240 244 247 250 251 251 251 252 253 252 253 255 256 256 257 258 258 259 263 266 268 270 273 277 280 282 285 287 289 290 291 291 291 291 291 291 291 292 292
198 199 200 202 204 205 207 209 210 211 211 211 213 214 214 213 216 219 224 227 227 226 222 217 216 219 223 227 228 229 230 232 231 231 232 232 231 231 232 233 231 229 228 225 221 222 229 235 238 241 244 247 247 248 251 252 251 251 253 255 255 254 255 256 258 261 264 266 268 272 275 277 280 283 286 288 289 290 290 290 290 290 290 290 290 291
199 200 201 202 204 205 207 208 208 210 210 211 214 216 216 215 216 220 224 227 228 227 223 218 216 217 220 225 229 230 232 233 233 232 232 232 231 231 231 232 232 231 229 226 222 223 227 232 236 237 240 243 244 245 248 251 250 251 253 255 255 254 255 258 259 261 263 265 267 271 275 278 281 283 286 287 288 288 289 290 290 290 290 289 289 290
199 200 202 203 204 205 207 207 208 209 210 210 213 216 217 218 220 223 226 227 228 227 224 219 218 218 219 222 227 231 233 235 234 233 233 233 232 231 231 232 233 233 231 228 226 226 229 234 237 238 238 239 241 243 247 248 248 249 252 255 256 256 258 259 260 261 264 266 269 273 277 281 283 284 285 286 286 287 289 289 290 289 289 289 289 289
199 199 201 203 204 204 205 207 209 209 209 209 211 213 214 216 220 224 228 230 231 229 225 220 219 219 219 220 225 230 232 234 235 234 234 234 234 233 233 233 234 234 233 231 230 230 232 236 238 240 239 240 242 244 246 247 247 249 252 254 256 256 257 259 262 264 266 269 272 276 280 282 282 283 283 284 285 286 287 287 288 289 289 289 289 289
198 199 200 202 203 204 205 207 208 208 208 209 210 212 213 215 218 222 226 230 231 230 226 220 219 219 220 221 225 231 234 236 236 236 235 236 236 236 236 235 235 235 234 234 234 234 235 237 239 241 241 242 244 245 245 247 248 250 253 255 256 257 257 260 264 266 268 272 275 278 281 281 280 280 281 281 282 283 285 286 286 288 288 289 289 289
198 199 199 200 201 202 203 205 207 207 208 209 210 211 212 215 218 220 222 224 225 225 222 219 219 221 222 223 227 233 237 239 239 238 236 236 236 237 238 238 237 237 236 235 235 236 236 237 239 241 242 242 243 244 245 247 250 253 256 258 259 259 259 261 264 267 271 276 279 280 281 281 279 279 280 280 280 282 283 285 286 287 288 288 289 289
197 198 198 199 200 201 202 204 205 207 208 209 210 211 212 214 217 220 222 222 221 220 217 215 219 222 222 224 228 232 237 241 241 239 236 235 235 236 237 238 238 238 237 236 236 236 237 238 239 240 241 241 241 242 243 245 251 257 260 261 261 260 259 259 262 266 271 274 274 275 277 278 279 280 282 282 282 283 284 285 286 287 287 288 288 289
195 196 197 198 200 201 201 203 204 206 209 211 212 213 214 216 219 223 226 225 223 219 214 212 217 221 222 224 227 231 236 240 241 240 238 236 235 235 237 238 239 239 238 237 237 237 237 238 238 239 240 241 242 243 241 242 246 250 250 251 255 256 256 258 261 262 263 263 265 271 276 278 280 282 284 284 283 284 285 286 286 287 287 287 287 288
195 195 196 198 200 201 202 203 204 207 210 212 215 216 217 219 222 227 231 231 227 221 214 212 217 221 223 225 227 229 233 238 241 241 241 240 238 237 238 239 240 240 240 239 238 238 238 238 238 238 239 241 243 244 242 240 241 242 243 246 251 254 258 261 261 260 259 261 266 272 276 277 279 281 282 282 282 283 285 285 286 286 286 286 286 286
195 197 198 199 201 203 204 205 206 208 211 214 216 217 218 220 223 227 230 231 228 220 213 214 219 222 225 228 230 231 234 239 242 242 242 241 241 240 241 242 242 242 242 240 239 239 240 241 241 240 240 241 242 244 244 242 241 242 244 248 251 255 260 261 259 259 260 262 266 269 271 273 276 278 278 279 280 282 282 283 284 284 284 284 284 285
196 198 199 201 202 204 205 207 209 211 213 215 217 218 218 219 222 224 226 228 226 218 213 215 219 222 225 229 232 234 236 239 241 241 240 240 240 240 241 242 243 243 243 242 241 240 241 241 242 243 243 242 243 244 245 244 244 245 248 250 253 256 259 258 258 260 261 261 262 264 267 271 274 276 277 278 278 279 280 281 281 281 282 283 283 283
196 198 200 201 203 204 205 207 209 211 213 215 217 218 219 220 222 223 223 224 222 217 215 217 219 221 224 227 230 234 236 239 241 241 240 239 239 239 240 241 243 245 246 245 244 242 242 242 243 243 244 245 246 247 247 247 247 249 251 254 256 257 259 261 262 263 263 263 264 266 268 272 274 275 276 277 277 277 278 278 278 279 280 281 282 282
197 199 201 202 203 203 204 206 209 211 212 214 216 218 219 221 224 224 222 221 218 216 216 219 221 222 225 227 229 232 236 240 243 243 242 241 241 241 242 243 246 248 249 249 247 246 245 244 243 244 245 246 247 248 250 251 252 252 254 257 259 260 262 264 265 265 266 266 267 268 270 272 273 274 275 276 276 276 276 276 277 278 280 280 281 282
200 201 203 204 204 204 205 207 209 211 212 213 215 217 219 222 224 223 221 218 216 216 218 221 223 225 228 229 231 233 235 238 242 244 243 243 243 244 245 245 247 248 250 250 250 249 247 246 245 244 245 246 247 248 249 251 253 254 255 256 258 259 261 262 263 264 266 268 269 270 271 271 272 273 273 274 274 275 275 276 277 279 279 280 280 281
203 204 206 207 207 207 207 209 210 212 212 213 215 217 219 222 222 221 218 216 215 217 220 223 225 227 229 231 232 234 236 238 241 244 246 246 245 245 245 245 245 247 248 249 249 249 248 247 246 245 244 244 245 246 247 247 250 252 252 252 253 255 257 260 264 266 267 267 267 267 268 269 269 270 271 271 272 273 275 277 279 279 280 280 281 282
204 206 207 208 209 209 209 210 212 212 213 214 215 217 218 219 219 218 217 216 216 217 219 222 225 227 229 230 232 234 237 238 240 243 246 247 247 247 246 245 245 246 247 247 247 247 247 247 246 246 245 244 244 245 245 246 248 250 251 251 251 252 254 256 259 261 261 260 261 263 266 268 269 271 271 272 273 274 276 277 279 280 281 281 283 284
205 206 208 209 210 210 210 211 213 214 215 216 215 214 215 216 215 216 217 217 217 218 220 222 225 227 228 230 232 235 237 238 239 241 243 246 247 248 248 246 246 246 246 246 246 247 246 246 245 245 245 245 245 246 247 247 248 250 252 252 250 250 251 252 252 254 256 258 261 264 267 269 271 272 274 275 275 276 277 278 279 280 281 282 284 285
205 206 207 208 210 210 211 212 214 215 215 215 213 212 215 216 215 215 218 219 219 220 221 223 225 227 228 230 233 236 238 239 239 241 242 244 246 248 249 249 248 247 246 246 246 247 246 246 245 245 245 245 245 246 246 248 248 250 251 251 249 247 246 247 250 254 258 260 262 264 267 269 271 273 275 276 277 277 278 279 280 281 282 283 284 284
204 205 206 207 208 209 210 211 212 211 210 209 209 214 218 217 215 216 218 220 221 222 223 225 226 228 229 231 234 237 239 240 241 242 242 243 245 248 249 249 249 248 247 247 247 247 246 246 245 245 245 245 246 246 246 247 249 250 251 251 250 247 244 241 243 249 254 256 259 262 265 268 271 272 274 275 276 278 279 280 281 281 282 283 283 284
202 203 204 205 206 207 207 208 208 208 208 208 212 219 222 219 217 218 219 221 223 225 225 226 228 229 232 235 237 239 240 241 242 243 243 244 246 248 249 250 250 250 250 250 250 250 250 249 247 246 247 247 248 248 249 250 251 252 253 253 253 252 250 247 247 250 253 255 257 260 264 267 269 270 272 274 276 277 279 280 281 282 282 283 283 284
Height
10587 10595 10604 10611 10615 10618 10621 10625 10629 10630 10633 10638 10641 10644 10646 10649 10652 10652 10653 10656 10661 10670 10675 10678 10679 10676 10679 10688 10692 10695 10700 10706 10712 10715 10717 10718 10717 10717 10717 10719 10723 10728 10731 10734 10737 10740 10744 10748 10753 10757 10757 10756 10756 10759 10762 10765 10765 10765 10765 10766 10767 10768 10769 10771 10772 10773 10774 10774 10774 10774 10775 10775 10776 10777 10778 10779 10779 10779 10779 10778 10777 10776 10776 10776 10776 10775
10583 10594 10603 10606 10607 10610 10613 10618 10621 10623 10628 10633 10637 10640 10642 10646 10647 10647 10649 10652 10659 10668 10670 10671 10672 10672 10676 10683 10687 10691 10697 10703 10707 10710 10712 10713 10713 10712 10712 10714 10718 10723 10725 10728 10731 10736 10740 10744 10749 10753 10753 10751 10751 10755 10759 10761 10761 10760 10761 10763 10765 10765 10766 10767 10768 10769 10770 10771 10771 10771 10771 10771 10772 10774 10775 10776 10776 10776 10775 10775 10774 10773 10773 10773 10773 10773
10582 10592 10597 10597 10600 10603 10606 10612 10616 10619 10624 10630 10634 10636 10639 10642 10643 10644 10646 10648 10657 10664 10663 10663 10667 10668 10671 10678 10684 10688 10694 10700 10703 10705 10708 10709 10708 10707 10708 10710 10713 10716 10719 10722 10726 10730 10736 10740 10745 10747 10746 10744 10746 10750 10754 10756 10756 10757 10759 10761 10762 10762 10763 10763 10765 10766 10767 10768 10768 10768 10768 10767 10768 10770 10771 10772 10773 10773 10772 10772 10772 10771 10771 10770 10770 10770
10580 10587 10588 10590 10593 10597 10602 10608 10612 10616 10621 10627 10631 10634 10636 10638 10639 10641 10640 10643 10651 10656 10654 10656 10660 10662 10666 10674 10682 10686 10691 10696 10699 10701 10703 10704 10703 10703 10704 10706 10708 10711 10715 10718 10721 10726 10731 10736 10739 10740 10740 10739 10742 10746 10749 10751 10753 10754 10756 10757 10758 10759 10759 10760 10762 10763 10764 10765 10765 10765 10764 10764 10765 10767 10768 10768 10769 10769 10769 10769 10769 10768 10769 10769 10768 10768
10573 10578 10579 10582 10587 10592 10598 10604 10608 10613 10619 10624 10627 10630 10632 10633 10635 10635 10633 10637 10646 10650 10649 10652 10656 10660 10666 10673 10680 10684 10687 10691 10694 10696 10697 10698 10699 10699 10700 10702 10704 10707 10711 10714 10717 10721 10726 10730 10732 10733 10734 10736 10739 10742 10744 10747 10750 10751 10753 10754 10755 10756 10756 10757 10759 10761 10762 10762 10762 10761 10760 10760 10762 10763 10763 10764 10765 10766 10766 10766 10765 10766 10767 10767 10766 10766
10565 10568 10569 10575 10582 10587 10594 10600 10606 10610 10614 10619 10622 10626 10626 10627 10628 10627 10627 10634 10644 10649 10648 10650 10655 10660 10665 10670 10675 10680 10682 10685 10689 10691 10692 10694 10695 10696 10697 10699 10701 10703 10707 10710 10713 10717 10721 10723 10725 10727 10729 10733 10736 10740 10742 10744 10746 10748 10749 10751 10752 10753 10753 10754 10756 10757 10758 10759 10759 10758 10758 10757 10758 10759 10760 10761 10762 10762 10762 10762 10762 10763 10764 10764 10764 10764
10556 10559 10563 10571 10576 10582 10589 10596 10602 10605 10610 10615 10617 10619 10618 10620 10622 10621 10624 10633 10641 10645 10644 10646 10652 10656 10662 10667 10671 10675 10678 10681 10685 10687 10688 10690 10691 10693 10694 10696 10697 10700 10704 10708 10710 10714 10717 10719 10721 10724 10727 10730 10734 10737 10739 10741 10743 10745 10746 10748 10749 10750 10750 10751 10752 10753 10754 10754 10755 10756 10756 10755 10754 10755 10756 10758 10759 10759 10758 10758 10758 10759 10760 10761 10761 10761
10551 10554 10559 10566 10571 10578 10587 10595 10599 10601 10607 10611 10609 10610 10612 10615 10616 10615 10622 10631 10637 10640 10640 10644 10649 10651 10657 10664 10668 10671 10675 10678 10680 10682 10684 10686 10688 10690 10691 10693 10695 10699 10703 10706 10708 10711 10713 10715 10718 10721 10725 10728 10731 10734 10735 10737 10740 10741 10743 10745 10746 10746 10747 10747 10748 10750 10750 10750 10751 10753 10753 10752 10751 10752 10753 10755 10756 10755 10755 10755 10755 10756 10757 10757 10757 10757
10544 10548 10555 10562 10569 10578 10586 10591 10592 10596 10603 10602 10600 10603 10606 10609 10610 10611 10620 10627 10632 10636 10638 10641 10644 10646 10653 10661 10664 10667 10672 10674 10675 10677 10680 10683 10685 10687 10689 10691 10693 10697 10700 10703 10705 10707 10709 10712 10716 10719 10721 10724 10728 10730 10732 10734 10736 10737 10739 10741 10742 10743 10743 10744 10744 10746 10747 10747 10748 10750 10750 10749 10748 10749 10751 10752 10752 10752 10752 10752 10752 10753 10753 10753 10753 10753
10534 10543 10550 10556 10566 10575 10580 10582 10584 10592 10596 10591 10591 10598 10601 10603 10606 10609 10617 10624 10628 10634 10636 10638 10640 10642 10650 10658 10661 10664 10667 10667 10668 10672 10676 10680 10681 10683 10686 10688 10690 10694 10697 10699 10702 10704 10707 10710 10714 10717 10718 10721 10724 10727 10729 10730 10732 10733 10735 10737 10738 10739 10740 10740 10741 10742 10743 10744 10745 10746 10746 10745 10745 10746 10748 10749 10749 10749 10749 10748 10749 10750 10749 10749 10749 10749
10530 10537 10541 10551 10562 10567 10569 10572 10578 10586 10586 10581 10587 10594 10596 10600 10603 10607 10615 10621 10627 10632 10633 10635 10637 10640 10647 10655 10658 10660 10660 10661 10664 10670 10674 10676 10678 10680 10683 10685 10688 10691 10694 10696 10699 10702 10705 10709 10712 10713 10715 10718 10721 10724 10725 10727 10728 10730 10732 10734 10734 10735 10736 10737 10737 10738 10740 10741 10742 10742 10742 10742 10742 10743 10744 10745 10746 10746 10745 10745 10746 10746 10745 10745 10745 10745
10525 10529 10538 10549 10556 10557 10560 10565 10572 10577 10576 10577 10585 10590 10593 10598 10601 10606 10614 10620 10627 10630 10630 10632 10634 10637 10645 10650 10651 10653 10654 10657 10662 10667 10670 10672 10675 10678 10681 10683 10685 10689 10691 10693 10696 10698 10701 10705 10708 10709 10711 10715 10717 10720 10721 10723 10725 10728 10730 10731 10731 10731 10732 10733 10733 10735 10736 10737 10738 10737 10737 10738 10739 10740 10741 10742 10743 10743 10742 10742 10742 10742 10741 10741 10740 10740
10521 10529 10537 10542 10545 10550 10556 10561 10568 10572 10573 10577 10583 10587 10592 10598 10601 10606 10612 10619 10626 10627 10627 10629 10630 10635 10641 10643 10643 10645 10649 10652 10657 10663 10667 10670 10672 10675 10677 10680 10683 10685 10687 10689 10692 10696 10698 10701 10704 10706 10708 10710 10713 10715 10717 10719 10721 10724 10726 10727 10727 10728 10729 10729 10730 10731 10733 10734 10734 10734 10734 10734 10735 10736 10737 10738 10739 10739 10739 10739 10738 10738 10737 10736 10735 10734
10515 10522 10527 10533 10542 10549 10555 10561 10568 10572 10574 10577 10582 10587 10592 10597 10601 10606 10610 10616 10621 10622 10622 10624 10628 10634 10638 10639 10640 10642 10646 10650 10655 10661 10665 10667 10668 10671 10673 10676 10679 10682 10683 10687 10691 10694 10696 10698 10700 10702 10704 10706 10709 10711 10713 10716 10718 10720 10721 10722 10723 10724 10725 10725 10726 10728 10729 10730 10730 10730 10730 10731 10732 10732 10733 10734 10735 10736 10736 10735 10735 10734 10733 10732 10731 10730
10512 10520 10528 10538 10545 10549 10554 10560 10565 10568 10569 10573 10579 10584 10589 10595 10599 10602 10605 10611 10615 10616 10618 10622 10627 10631 10633 10634 10636 10640 10645 10650 10655 10659 10660 10662 10664 10667 10670 10672 10675 10678 10681 10684 10688 10691 10693 10695 10697 10699 10700 10702 10706 10708 10710 10713 10714 10716 10716 10717 10718 10719 10721 10722 10723 10724 10725 10725 10726 10725 10726 10727 10728 10729 10730 10731 10731 10732 10732 10731 10730 10730 10729 10728 10727 10726
10510 10521 10530 10536 10540 10544 10550 10554 10557 10560 10563 10567 10573 10579 10587 10592 10593 10595 10599 10605 10609 10611 10614 10619 10623 10626 10628 10629 10632 10637 10644 10649 10653 10655 10655 10656 10659 10662 10665 10668 10670 10673 10677 10682 10685 10688 10690 10692 10694 10696 10697 10700 10703 10706 10708 10709 10710 10711 10712 10713 10714 10716 10718 10719 10719 10720 10720 10721 10721 10722 10722 10723 10724 10725 10725 10726 10727 10727 10727 10727 10726 10725 10724 10723 10722 10721
10509 10517 10521 10526 10532 10539 10545 10548 10552 10557 10561 10564 10571 10579 10585 10585 10586 10591 10596 10600 10604 10607 10611 10615 10618 10620 10623 10625 10629 10635 10640 10645 10649 10650 10650 10651 10653 10657 10660 10664 10667 10671 10676 10680 10683 10685 10687 10689 10691 10693 10695 10698 10701 10703 10704 10705 10707 10708 10709 10710 10712 10713 10715 10715 10716 10716 10717 10717 10718 10718 10718 10719 10720 10720 10721 10721 10722 10722 10723 10723 10722 10721 10720 10719 10718 10716
10506 10510 10514 10521 10528 10533 10538 10541 10545 10552 10555 10561 10571 10577 10576 10577 10583 10589 10593 10597 10602 10605 10609 10612 10614 10615 10618 10622 10627 10632 10636 10640 10643 10644 10646 10646 10648 10652 10658 10663 10666 10670 10674 10677 10679 10681 10683 10686 10688 10690 10693 10695 10697 10699 10700 10701 10703 10705 10706 10707 10708 10710 10711 10712 10712 10713 10713 10714 10714 10715 10715 10715 10716 10716 10717 10717 10717 10717 10718 10718 10717 10716 10715 10714 10713 10712
10496 10500 10507 10515 10521 10526 10529 10531 10538 10546 10551 10558 10565 10567 10568 10575 10583 10587 10590 10595 10599 10602 10606 10609 10610 10613 10616 10621 10625 10628 10631 10635 10638 10640 10641 10641 10644 10650 10657 10661 10663 10666 10670 10672 10674 10677 10680 10682 10685 10687 10689 10691 10693 10694 10696 10698 10700 10701 10702 10703 10704 10706 10707 10708 10708 10708 10709 10710 10710 10711 10710 10711 10712 10712 10713 10713 10713 10713 10713 10712 10711 10710 10709 10709 10708 10707
10488 10494 10502 10508 10512 10515 10519 10526 10538 10546 10550 10554 10558 10562 10568 10575 10578 10582 10587 10591 10594 10599 10602 10605 10607 10610 10613 10618 10622 10625 10628 10631 10634 10635 10636 10637 10642 10648 10654 10657 10659 10662 10665 10668 10671 10674 10675 10677 10679 10682 10685 10686 10689 10691 10692 10694 10696 10697 10697 10698 10700 10702 10703 10704 10704 10704 10705 10706 10706 10706 10706 10706 10707 10708 10709 10709 10709 10709 10708 10707 10706 10704 10704 10703 10703 10701
10481 10490 10497 10500 10501 10506 10517 10530 10540 10544 10548 10552 10557 10563 10569 10572 10575 10580 10584 10587 10591 10595 10598 10600 10603 10606 10610 10614 10618 10621 10624 10628 10630 10631 10633 10635 10640 10645 10649 10652 10655 10657 10660 10664 10667 10668 10669 10671 10675 10679 10682 10683 10685 10686 10688 10690 10691 10692 10693 10694 10696 10698 10699 10699 10700 10701 10702 10702 10702 10702 10701 10702 10703 10703 10704 10704 10704 10704 10703 10701 10700 10699 10698 10699 10698 10696
10477 10485 10490 10493 10498 10510 10523 10531 10533 10538 10543 10548 10554 10561 10565 10568 10573 10577 10581 10585 10588 10591 10594 10597 10600 10603 10606 10610 10614 10618 10621 10624 10625 10627 10630 10633 10636 10640 10644 10648 10650 10653 10656 10660 10662 10663 10665 10669 10673 10676 10678 10679 10681 10683 10685 10686 10687 10688 10689 10690 10692 10693 10694 10695 10696 10697 10698 10698 10698 10697 10697 10697 10698 10699 10699 10699 10699 10699 10697 10696 10695 10694 10694 10694 10693 10691
10473 10479 10485 10492 10503 10514 10520 10522 10526 10533 10538 10542 10548 10554 10558 10563 10569 10573 10577 10580 10582 10586 10591 10594 10598 10601 10603 10608 10612 10615 10618 10620 10622 10624 10627 10630 10633 10635 10638 10643 10647 10649 10652 10655 10657 10659 10663 10667 10670 10673 10674 10677 10679 10680 10682 10682 10683 10683 10684 10686 10688 10689 10690 10691 10692 10693 10693 10693 10693 10693 10693 10693 10693 10694 10694 10694 10694 10693 10692 10691 10689 10689 10689 10689 10688 10686
10467 10476 10484 10493 10500 10505 10509 10513 10519 10526 10531 10536 10544 10550 10556 10561 10565 10568 10571 10573 10577 10581 10586 10590 10594 10597 10601 10605 10609 10612 10615 10617 10618 10620 10623 10626 10629 10630 10633 10638 10642 10645 10648 10651 10654 10657 10661 10665 10668 10670 10672 10674 10675 10676 10677 10678 10678 10679 10680 10683 10684 10685 10686 10686 10688 10689 10689 10689 10689 10689 10689 10689 10689 10689 10689 10689 10689 10688 10687 10685 10684 10684 10685 10684 10683 10681
10465 10474 10482 10488 10491 10494 10497 10503 10513 10522 10529 10536 10543 10548 10553 10557 10561 10563 10566 10570 10574 10577 10581 10586 10589 10594 10598 10600 10603 10608 10611 10613 10614 10616 10620 10624 10624 10626 10629 10632 10636 10640 10645 10649 10651 10654 10657 10661 10664 10665 10667 10668 10670 10671 10672 10673 10674 10675 10677 10679 10680 10681 10681 10682 10683 10684 10684 10684 10684 10684 10684 10684 10684 10684 10684 10684 10683 10683 10682 10680 10679 10680 10680 10678 10677 10676
10464 10472 10480 10486 10491 10497 10504 10513 10523 10530 10533 10537 10542 10546 10551 10554 10557 10561 10565 10569 10572 10574 10578 10582 10586 10591 10595 10596 10599 10603 10607 10609 10611 10614 10618 10619 10619 10622 10624 10626 10630 10637 10642 10646 10648 10650 10653 10656 10659 10660 10661 10662 10664 10665 10666 10668 10670 10672 10673 10675 10675 10676 10677 10677 10678 10679 10679 10679 10679 10679 10679 10679 10679 10678 10679 10679 10678 10677 10676 10675 10674 10674 10673 10673 10672 10670
10462 10471 10479 10486 10494 10502 10510 10519 10526 10529 10531 10535 10540 10544 10548 10550 10554 10559 10563 10566 10569 10571 10575 10579 10583 10588 10591 10593 10596 10599 10602 10605 10607 10610 10613 10613 10615 10618 10620 10623 10629 10635 10639 10643 10646 10649 10650 10653 10655 10656 10655 10656 10657 10659 10662 10664 10666 10667 10669 10670 10670 10671 10672 10673 10673 10674 10674 10674 10674 10675 10674 10674 10674 10674 10674 10673 10673 10672 10670 10669 10669 10668 10667 10667 10666 10665
10460 10470 10476 10482 10488 10494 10501 10509 10515 10519 10524 10530 10535 10540 10543 10546 10551 10556 10560 10562 10565 10568 10572 10576 10580 10584 10588 10591 10593 10595 10598 10600 10602 10606 10608 10610 10612 10616 10619 10624 10628 10631 10635 10640 10644 10647 10648 10649 10650 10649 10649 10650 10652 10654 10657 10660 10662 10663 10664 10665 10665 10666 10668 10669 10669 10669 10670 10670 10670 10670 10670 10670 10670 10669 10668 10668 10668 10667 10665 10664 10664 10663 10662 10662 10661 10661
10457 10465 10471 10478 10484 10489 10495 10502 10506 10511 10516 10523 10529 10534 10538 10541 10547 10552 10555 10557 10560 10564 10568 10572 10577 10582 10584 10586 10588 10591 10594 10596 10599 10602 10604 10606 10609 10612 10617 10622 10624 10628 10632 10636 10641 10647 10649 10646 10643 10642 10643 10646 10649 10651 10654 10656 10657 10658 10660 10660 10661 10663 10664 10664 10664 10665 10666 10666 10666 10666 10666 10666 10666 10664 10663 10662 10662 10661 10660 10659 10658 10657 10656 10656 10656 10655
10454 10460 10467 10475 10480 10485 10491 10496 10501 10506 10513 10520 10526 10529 10533 10538 10543 10546 10549 10552 10556 10560 10564 10569 10575 10578 10580 10582 10585 10589 10592 10594 10597 10599 10602 10604 10606 10610 10615 10618 10621 10625 10628 10633 10642 10649 10647 10639 10633 10635 10639 10642 10645 10648 10650 10652 10653 10654 10655 10657 10658 10659 10660 10660 10660 10661 10661 10661 10661 10662 10662 10662 10661 10659 10658 10657 10656 10656 10655 10654 10654 10652 10652 10651 10651 10650
10447 10454 10463 10470 10475 10480 10486 10493 10501 10508 10514 10519 10522 10525 10530 10536 10539 10542 10545 10549 10553 10557 10562 10567 10572 10575 10577 10579 10583 10588 10591 10592 10594 10596 10598 10601 10604 10608 10611 10615 10618 10621 10624 10632 10641 10642 10635 10627 10625 10628 10632 10635 10638 10642 10644 10645 10647 10649 10651 10652 10654 10654 10655 10655 10656 10657 10657 10657 10657 10658 10657 10656 10655 10654 10653 10652 10651 10650 10650 10650 10649 10648 10647 10646 10646 10645
10444 10452 10460 10466 10472 10478 10485 10492 10501 10507 10512 10516 10519 10523 10528 10533 10536 10540 10543 10547 10551 10555 10560 10565 10569 10571 10574 10577 10581 10584 10586 10587 10588 10590 10592 10596 10600 10604 10607 10610 10613 10615 10620 10626 10629 10626 10622 10620 10620 10623 10626 10630 10633 10635 10637 10639 10641 10645 10647 10648 10648 10649 10650 10651 10652 10652 10653 10653 10653 10653 10652 10651 10650 10649 10648 10647 10646 10645 10645 10644 10644 10643 10642 10642 10640 10639
10444 10452 10459 10465 10473 10479 10485 10492 10498 10502 10506 10512 10517 10521 10526 10530 10534 10537 10541 10545 10549 10553 10557 10561 10564 10568 10571 10574 10577 10579 10580 10581 10583 10585 10589 10592 10596 10599 10602 10605 10607 10610 10615 10618 10620 10618 10616 10616 10617 10618 10623 10626 10628 10630 10632 10633 10636 10640 10642 10642 10643 10645 10646 10647 10648 10647 10648 10648 10648 10647 10646 10646 10645 10644 10643 10642 10641 10640 10639 10639 10639 10638 10638 10637 10636 10635
10444 10452 10460 10467 10474 10480 10485 10489 10493 10497 10505 10512 10517 10520 10525 10529 10532 10536 10539 10542 10545 10549 10554 10557 10561 10565 10569 10572 10573 10575 10576 10577 10579 10581 10584 10587 10591 10594 10598 10600 10603 10606 10608 10611 10613 10613 10613 10612 10613 10615 10619 10622 10624 10626 10627 10628 10631 10635 10637 10638 10639 10641 10642 10642 10642 10642 10642 10642 10641 10641 10640 10640 10639 10639 10638 10637 10635 10634 10634 10634 10633 10633 10633 10632 10631 10630
10446 10454 10461 10467 10474 10479 10482 10485 10489 10496 10505 10510 10513 10517 10521 10525 10528 10532 10535 10538 10542 10546 10550 10554 10558 10562 10566 10569 10569 10570 10571 10572 10574 10577 10580 10583 10587 10590 10593 10596 10599 10601 10604 10607 10609 10609 10608 10608 10609 10611 10614 10617 10620 10622 10622 10624 10627 10631 10632 10634 10635 10637 10638 10637 10637 10637 10637 10636 10635 10634 10634 10634 10634 10634 10633 10631 10630 10630 10630 10629 10628 10628 10628 10627 10626 10625
10446 10454 10460 10466 10472 10476 10479 10482 10488 10495 10502 10506 10509 10512 10516 10519 10523 10527 10531 10535 10539 10543 10547 10551 10555 10560 10563 10565 10566 10566 10567 10569 10571 10574 10577 10580 10583 10585 10588 10591 10594 10596 10600 10602 10604 10604 10604 10604 10605 10607 10609 10613 10616 10618 10619 10621 10624 10626 10628 10629 10631 10633 10633 10633 10633 10633 10632 10630 10628 10628 10628 10628 10628 10628 10626 10626 10625 10625 10625 10624 10623 10623 10623 10622 10621 10619
10445 10451 10457 10463 10467 10471 10475 10481 10486 10492 10496 10500 10504 10507 10511 10514 10518 10522 10525 10529 10534 10539 10544 10549 10554 10557 10559 10561 10563 10564 10565 10567 10569 10571 10574 10576 10578 10581 10583 10586 10589 10592 10595 10598 10599 10600 10599 10600 10601 10602 10604 10607 10610 10614 10617 10619 10620 10622 10624 10625 10628 10629 10629 10630 10631 10630 10628 10624 10621 10621 10621 10621 10622 10622 10620 10620 10620 10620 10619 10618 10618 10618 10617 10616 10615 10613
10443 10449 10454 10458 10462 10467 10474 10479 10483 10487 10491 10495 10499 10502 10506 10510 10514 10517 10519 10525 10531 10536 10542 10547 10550 10552 10554 10557 10559 10561 10562 10563 10565 10567 10570 10572 10574 10577 10579 10581 10584 10587 10590 10592 10594 10594 10595 10595 10596 10597 10599 10602 10606 10610 10614 10616 10619 10622 10621 10621 10624 10625 10624 10626 10627 10626 10625 10620 10615 10615 10615 10615 10615 10615 10615 10615 10614 10613 10613 10613 10613 10612 10611 10610 10609 10607
10441 10446 10451 10455 10460 10465 10470 10474 10479 10483 10487 10491 10494 10498 10504 10508 10511 10513 10516 10523 10530 10534 10539 10543 10545 10546 10549 10552 10554 10557 10559 10559 10560 10563 10565 10567 10570 10572 10575 10577 10579 10581 10584 10587 10588 10589 10590 10590 10591 10593 10595 10597 10601 10606 10610 10613 10618 10620 10617 10616 10618 10618 10618 10620 10622 10621 10619 10615 10611 10610 10610 10610 10609 10609 10609 10610 10609 10607 10607 10607 10607 10606 10605 10604 10603 10601
10439 10444 10448 10452 10457 10462 10467 10472 10477 10480 10484 10488 10492 10498 10504 10508 10510 10513 10517 10523 10529 10533 10537 10540 10540 10541 10544 10547 10550 10553 10554 10555 10557 10560 10561 10563 10565 10568 10569 10572 10574 10577 10579 10581 10583 10584 10585 10585 10587 10588 10590 10593 10597 10600 10604 10609 10614 10614 10611 10611 10613 10613 10614 10617 10616 10614 10613 10611 10608 10606 10604 10604 10604 10604 10605 10604 10603 10602 10602 10602 10601 10600 10599 10598 10596 10595
10438 10442 10446 10451 10457 10461 10466 10471 10476 10479 10483 10487 10491 10497 10502 10505 10509 10513 10516 10520 10523 10528 10533 10535 10536 10537 10540 10543 10546 10548 10550 10552 10555 10556 10557 10558 10560 10562 10564 10567 10569 10572 10574 10576 10579 10580 10581 10581 10582 10584 10586 10589 10592 10595 10598 10602 10606 10607 10605 10605 10608 10611 10613 10613 10610 10608 10608 10607 10604 10601 10599 10598 10599 10600 10600 10599 10598 10598 10597 10596 10595 10594 10593 10591 10590 10589
10436 10440 10445 10450 10455 10460 10466 10471 10475 10478 10482 10486 10489 10494 10498 10502 10506 10510 10513 10514 10517 10523 10527 10529 10531 10534 10537 10539 10542 10544 10547 10549 10550 10551 10552 10554 10555 10557 10559 10561 10564 10567 10569 10571 10574 10576 10576 10577 10577 10579 10581 10584 10586 10589 10591 10594 10597 10599 10599 10599 10602 10606 10608 10606 10604 10603 10604 10602 10599 10597 10596 10595 10595 10595 10594 10593 10593 10593 10592 10591 10590 10588 10587 10585 10584 10583
10432 10437 10442 10447 10453 10458 10464 10469 10472 10476 10480 10483 10487 10491 10496 10499 10503 10505 10507 10508 10512 10517 10521 10523 10526 10529 10532 10535 10538 10540 10542 10543 10543 10545 10547 10549 10550 10552 10554 10557 10559 10562 10564 10566 10568 10570 10571 10572 10573 10575 10576 10579 10581 10582 10584 10587 10590 10592 10593 10593 10595 10599 10600 10600 10599 10598 10598 10596 10593 10593 10593 10592 10591 10589 10588 10588 10587 10586 10586 10585 10583 10582 10581 10579 10578 10577
10430 10435 10440 10445 10450 10456 10461 10465 10468 10472 10476 10480 10484 10488 10492 10495 10498 10499 10501 10504 10508 10512 10516 10518 10521 10525 10528 10532 10534 10536 10537 10538 10538 10540 10543 10545 10546 10549 10551 10553 10555 10557 10559 10561 10563 10565 10566 10567 10568 10570 10572 10574 10575 10576 10578 10581 10584 10586 10587 10589 10591 10592 10593 10593 10592 10591 10589 10587 10586 10587 10588 10586 10584 10582 10582 10582 10581 10580 10579 10578 10576 10575 10574 10573 10572 10570
10430 10434 10439 10443 10449 10454 10458 10462 10465 10468 10472 10476 10480 10484 10487 10490 10492 10494 10497 10501 10505 10509 10512 10514 10518 10522 10525 10529 10531 10532 10532 10532 10532 10534 10537 10540 10543 10545 10548 10550 10552 10553 10555 10556 10558 10559 10560 10561 10563 10566 10568 10570 10571 10572 10575 10577 10579 10581 10584 10587 10588 10587 10586 10585 10583 10581 10580 10579 10579 10581 10581 10579 10577 10576 10575 10575 10574 10573 10573 10571 10569 10568 10568 10566 10565 10564
10431 10434 10438 10443 10447 10452 10456 10458 10461 10464 10468 10472 10475 10479 10482 10485 10487 10490 10493 10497 10501 10505 10508 10511 10515 10518 10521 10524 10526 10526 10526 10527 10527 10528 10531 10535 10538 10541 10544 10546 10548 10549 10551 10552 10553 10554 10555 10556 10558 10560 10563 10565 10566 10568 10571 10573 10574 10576 10579 10581 10580 10580 10581 10579 10575 10573 10574 10574 10573 10573 10573 10572 10570 10570 10569 10568 10568 10567 10566 10564 10562 10562 10561 10559 10558 10558
10428 10433 10437 10441 10445 10449 10452 10454 10456 10459 10463 10467 10470 10473 10476 10478 10481 10484 10488 10492 10496 10500 10503 10507 10510 10513 10516 10518 10520 10520 10521 10522 10523 10524 10526 10529 10531 10535 10538 10541 10543 10544 10546 10547 10548 10549 10550 10551 10553 10554 10557 10559 10560 10562 10564 10566 10568 10569 10569 10570 10572 10575 10577 10575 10569 10567 10568 10567 10565 10566 10566 10566 10565 10564 10563 10563 10562 10561 10559 10557 10556 10555 10555 10553 10552 10552
10425 10429 10434 10437 10441 10444 10448 10450 10453 10456 10460 10464 10467 10469 10471 10473 10475 10478 10482 10486 10491 10495 10499 10502 10505 10507 10510 10513 10514 10515 10516 10517 10518 10520 10521 10523 10525 10528 10532 10535 10537 10539 10540 10541 10542 10543 10545 10546 10547 10549 10551 10552 10553 10555 10557 10559 10562 10563 10561 10562 10566 10569 10570 10568 10564 10562 10560 10559 10559 10560 10560 10559 10559 10558 10557 10556 10555 10554 10552 10551 10550 10549 10548 10547 10546 10545
10422 10426 10429 10433 10437 10440 10444 10446 10449 10453 10457 10461 10464 10467 10468 10469 10471 10474 10478 10482 10487 10491 10494 10498 10501 10503 10506 10508 10509 10510 10511 10512 10513 10514 10516 10518 10520 10522 10526 10529 10531 10533 10533 10534 10536 10537 10538 10539 10541 10543 10544 10545 10547 10549 10552 10553 10555 10555 10555 10556 10559 10561 10561 10560 10559 10556 10554 10553 10553 10554 10553 10553 10552 10551 10550 10549 10548 10547 10546 10545 10544 10543 10541 10540 10539 10538
10419 10422 10426 10430 10433 10436 10440 10442 10445 10449 10452 10456 10459 10461 10462 10465 10468 10471 10474 10478 10482 10486 10490 10494 10497 10500 10501 10503 10504 10505 10506 10506 10507 10509 10511 10513 10515 10517 10520 10523 10524 10526 10527 10528 10530 10531 10532 10533 10534 10536 10538 10539 10540 10543 10545 10546 10547 10548 10548 10549 10550 10552 10553 10554 10553 10550 10548 10547 10547 10547 10547 10546 10545 10544 10543 10542 10541 10540 10540 10539 10538 10536 10535 10533 10532 10531
10418 10421 10424 10428 10431 10433 10436 10439 10442 10445 10448 10452 10455 10456 10457 10461 10465 10468 10472 10475 10478 10482 10486 10490 10494 10496 10497 10497 10498 10499 10500 10500 10501 10502 10504 10506 10509 10512 10514 10516 10518 10520 10521 10523 10524 10525 10526 10527 10528 10529 10530 10532 10533 10535 10537 10539 10540 10541 10542 10542 10542 10543 10545 10546 10545 10544 10543 10542 10541 10541 10540 10540 10539 10538 10537 10536 10535 10534 10533 10532 10531 10530 10528 10527 10526 10524